Change the Weather History Date:

Tuesday, April 30, 2013

  Actual Average Record
Temperature  
Mean Temperature 68 °F 70 °F  
Max Temperature 82 °F 82 °F 93 °F (1987)
Min Temperature 54 °F 58 °F 41 °F (1965)
Degree Days  
Heating Degree Days 0 1  
Month to date heating degree days 137 81  
Since 1 July heating degree days 2164 2224  
Cooling Degree Days 3 6  
Month to date cooling degree days 92 104  
Year to date cooling degree days 113 147  
Growing Degree Days 18 (Base 50)    
Moisture  
Dew Point 60 °F    
Average Humidity 76    
Maximum Humidity 100    
Minimum Humidity 51    
Precipitation  
Precipitation T in 0.15 in 1.89 in (1981)
Month to date precipitation 5.45 4.50  
Year to date precipitation 21.66 18.86  
Snow  
Snow 0.00 in - - ()
Month to date snowfall 0.0  
Since 1 July snowfall 0.3  
Snow Depth 0.00 in    
Sea Level Pressure  
Sea Level Pressure 29.89 in    
Wind  
Wind Speed 3 mph (SE)    
Max Wind Speed 12 mph    
Max Gust Speed 18 mph    
Visibility 10 miles    
Events      
T = Trace of Precipitation, MM = Missing Value Source: NWS Daily Summary

Daily Weather History Graph

Daily Weather History Graph

Search for Another Location

Airport or City:

Trip Planner

Search our weather history database for the weather conditions in past years. The results will help you decide how hot, cold, wet, or windy it might be!

Date:

Astronomy

Apr. 30, 2013 Rise Set
Actual Time 6:22 AM CDT 7:48 PM CDT
Civil Twilight 5:56 AM CDT 8:15 PM CDT
Nautical Twilight 5:24 AM CDT 8:46 PM CDT
Astronomical Twilight 4:52 AM CDT 9:19 PM CDT
Moon 12:08 AM CDT (4/30) 10:54 AM CDT (4/30)
Length of Visible Light 14h 19m
Length of Day
13h 26m
Waning Gibbous, 70% of the Moon is Illuminated
Apr 30
Waning Gibbous
May 2
Last Quarter
May 9
New
May 17
First Quarter
May 24
Full

Hourly Weather History & Observations

Time (CDT) Temp. Heat Index Dew Point Humidity Pressure Visibility Wind Dir Wind Speed Gust Speed Precip Events Conditions
12:53 AM 63.0 °F - 55.9 °F 78% 29.90 in 10.0 mi East 3.5 mph - N/A   Clear
1:53 AM 59.0 °F - 55.9 °F 90% 29.89 in 10.0 mi Calm Calm - N/A   Clear
2:53 AM 57.9 °F - 55.0 °F 90% 29.88 in 10.0 mi Calm Calm - N/A   Clear
3:53 AM 57.0 °F - 55.0 °F 93% 29.89 in 10.0 mi Calm Calm - N/A   Clear
4:53 AM 55.0 °F - 54.0 °F 96% 29.88 in 9.0 mi Calm Calm - N/A   Clear
5:53 AM 55.0 °F - 53.1 °F 93% 29.88 in 9.0 mi Calm Calm - N/A   Clear
6:53 AM 54.0 °F - 53.1 °F 97% 29.91 in 5.0 mi Calm Calm - N/A   Clear
7:53 AM 64.0 °F - 59.0 °F 84% 29.91 in 10.0 mi Calm Calm - N/A   Clear
8:53 AM 68.0 °F - 62.1 °F 81% 29.92 in 10.0 mi SE 3.5 mph - N/A   Clear
9:53 AM 75.0 °F - 64.9 °F 71% 29.91 in 10.0 mi East 3.5 mph - N/A   Clear
10:53 AM 78.1 °F - 64.0 °F 62% 29.92 in 10.0 mi Variable 6.9 mph - N/A   Clear
11:53 AM 80.1 °F 81.1 °F 61.0 °F 52% 29.91 in 10.0 mi SE 5.8 mph - N/A   Partly Cloudy
12:53 PM 80.1 °F 80.9 °F 60.1 °F 50% 29.89 in 10.0 mi South 9.2 mph - N/A   Clear
1:53 PM 80.1 °F 81.2 °F 62.1 °F 54% 29.88 in 10.0 mi Variable 5.8 mph - N/A   Mostly Cloudy
2:53 PM 80.1 °F 81.2 °F 62.1 °F 54% 29.87 in 10.0 mi Variable 5.8 mph - N/A   Mostly Cloudy
3:53 PM 81.0 °F 81.9 °F 62.1 °F 52% 29.86 in 10.0 mi ESE 9.2 mph - N/A   Clear
4:53 PM 80.1 °F 81.5 °F 63.0 °F 56% 29.85 in 10.0 mi SSE 5.8 mph - N/A   Mostly Cloudy
5:53 PM 79.0 °F - 62.1 °F 56% 29.84 in 10.0 mi SE 4.6 mph - N/A   Clear
6:53 PM 77.0 °F - 64.0 °F 64% 29.86 in 10.0 mi Calm Calm - N/A   Mostly Cloudy
7:53 PM 73.9 °F - 64.0 °F 71% 29.86 in 9.0 mi Calm Calm - N/A   Clear
8:53 PM 73.0 °F - 64.9 °F 76% 29.88 in 9.0 mi Variable 3.5 mph - N/A   Clear
9:53 PM 72.0 °F - 64.0 °F 76% 29.89 in 10.0 mi SSE 6.9 mph - N/A   Partly Cloudy
10:53 PM 70.0 °F - 62.1 °F 76% 29.89 in 10.0 mi Calm Calm - N/A   Clear
11:53 PM 69.8 °F - 62.6 °F 78% 29.90 in 10.0 mi East 4.6 mph - N/A   Partly Cloudy